Weather History for Broomfield, CO

Change the Weather History Date:

Saturday, July 19, 2014

  Actual Average Record
Temperature  
Mean Temperature 78 °F -  
Max Temperature 93 °F 86 °F 100 °F (1998)
Min Temperature 62 °F 62 °F 49 °F (1988)
Cooling Degree Days 12    
Growing Degree Days 28 (Base 50)    
Moisture  
Dew Point 43 °F    
Average Humidity 38    
Maximum Humidity 56    
Minimum Humidity 12    
Precipitation  
Precipitation 0.00 in - - ()
Sea Level Pressure  
Sea Level Pressure 30.06 in    
Wind  
Wind Speed 4 mph (SW)    
Max Wind Speed 15 mph    
Max Gust Speed 21 mph    
Visibility 14 miles    
Events      
Averages and records for this station are not official NWS values.
T = Trace of Precipitation, MM = Missing Value Source: NWS Daily Summary

Daily Weather History Graph

Daily Weather History Graph

Search for Another Location

Airport:

Trip Planner

Search our weather history database for the weather conditions in past years. The results will help you decide how hot, cold, wet, or windy it might be!

Date:

Astronomy

Jul. 19, 2014 Rise Set
Actual Time 5:47 AM MDT 8:25 PM MDT
Civil Twilight 5:16 AM MDT 8:56 PM MDT
Nautical Twilight 4:37 AM MDT 9:35 PM MDT
Astronomical Twilight 3:52 AM MDT 10:19 PM MDT
Moon 12:24 AM MDT (7/19) 2:09 PM MDT (7/19)
Length of Visible Light 15h 40m
Length of Day
14h 37m
Last Quarter, 43% of the Moon is Illuminated
Jul 19
Last Quarter
Jul 26
New
Aug 3
First Quarter
Aug 10
Full
Aug 17
Last Quarter

Hourly Weather History & Observations

Time (MDT) Temp. Dew Point Humidity Pressure Visibility Wind Dir Wind Speed Gust Speed Precip Events Conditions
12:15 AM 68.0 °F 50.0 °F 52% 30.06 in 10.0 mi SSW 4.6 mph - N/A   Clear
12:35 AM 68.0 °F 48.2 °F 49% 30.06 in 10.0 mi SW 3.5 mph - N/A   Clear
12:55 AM 68.0 °F 50.0 °F 52% 30.07 in 10.0 mi SSE 5.8 mph - N/A   Clear
1:14 AM 68.0 °F 50.0 °F 52% 30.07 in 10.0 mi Calm Calm - N/A   Clear
1:35 AM 68.0 °F 46.4 °F 46% 30.06 in 10.0 mi South 3.5 mph - N/A   Clear
1:55 AM 64.4 °F 48.2 °F 56% 30.06 in 10.0 mi WSW 3.5 mph - N/A   Clear
2:15 AM 66.2 °F 48.2 °F 52% 30.06 in 10.0 mi West 3.5 mph - N/A   Clear
2:35 AM 64.4 °F 46.4 °F 52% 30.06 in 10.0 mi WNW 5.8 mph - N/A   Clear
2:55 AM 68.0 °F 42.8 °F 40% 30.06 in 10.0 mi NW 3.5 mph - N/A   Clear
3:15 AM 66.2 °F 44.6 °F 46% 30.05 in 10.0 mi WNW 6.9 mph - N/A   Clear
3:35 AM 62.6 °F 46.4 °F 55% 30.06 in 10.0 mi NNW 4.6 mph - N/A   Clear
3:55 AM 62.6 °F 46.4 °F 55% 30.06 in 10.0 mi Calm Calm - N/A   Clear
4:15 AM 64.4 °F 44.6 °F 49% 30.07 in 10.0 mi Calm Calm - N/A   Clear
4:35 AM 64.4 °F 44.6 °F 49% 30.07 in 10.0 mi Calm Calm - N/A   Clear
4:55 AM 66.2 °F 42.8 °F 43% 30.07 in 10.0 mi Calm Calm - N/A   Clear
5:15 AM 68.0 °F 42.8 °F 40% 30.08 in 10.0 mi Calm Calm - N/A   Clear
5:35 AM 64.4 °F 42.8 °F 45% 30.08 in 10.0 mi Calm Calm - N/A   Clear
5:52 AM 66.2 °F 41.0 °F 40% 30.08 in 20.0 mi West 8.1 mph - N/A   Scattered Clouds
5:55 AM 64.4 °F 42.8 °F 45% 30.09 in 10.0 mi Calm Calm - N/A   Clear
6:47 AM 66.2 °F 41.0 °F 40% 30.09 in 20.0 mi West 4.6 mph - N/A   Scattered Clouds
7:47 AM 73.4 °F 41.0 °F 31% 30.10 in 20.0 mi Calm Calm - N/A   Scattered Clouds
8:47 AM 77.0 °F 46.4 °F 34% 30.11 in 20.0 mi Variable 4.6 mph - N/A   Scattered Clouds
9:45 AM 82.4 °F 46.4 °F 28% 30.11 in 15.0 mi South 3.5 mph - N/A   Haze
10:55 AM 89.6 °F 30.2 °F 12% 30.11 in 15.0 mi East 5.8 mph - N/A   Haze
12:47 PM 89.6 °F 33.8 °F 14% 30.09 in 15.0 mi SE 5.8 mph - N/A   Haze
2:47 PM 93.2 °F 35.6 °F 13% 30.04 in 20.0 mi SSE 9.2 mph 16.1 mph N/A   Smoke
3:47 PM 93.2 °F 33.8 °F 12% 30.04 in 15.0 mi SSW 11.5 mph - N/A   Smoke
4:47 PM 93.2 °F 37.4 °F 14% 30.03 in 15.0 mi South 13.8 mph 20.7 mph N/A   Smoke
5:48 PM 89.6 °F 37.4 °F 16% 30.03 in 20.0 mi SSE 15.0 mph - N/A   Smoke
6:51 PM 87.8 °F 39.2 °F 18% 30.03 in 20.0 mi South 10.4 mph 17.3 mph N/A   Smoke
7:54 PM 82.4 °F 44.6 °F 26% 30.03 in 20.0 mi SSE 5.8 mph - N/A   Haze
8:54 PM 80.6 °F 46.4 °F 30% 30.04 in 20.0 mi Calm Calm - N/A   Haze
9:47 PM 75.2 °F 48.2 °F 38% 30.05 in 20.0 mi SSW 4.6 mph - N/A   Scattered Clouds
11:15 PM 68.0 °F 44.6 °F 43% 30.04 in 10.0 mi WSW 4.6 mph - N/A   Clear
11:35 PM 68.0 °F 42.8 °F 40% 30.04 in 10.0 mi WSW 9.2 mph - N/A   Clear
11:55 PM 68.0 °F 41.0 °F 37% 30.04 in 10.0 mi West 8.1 mph - N/A   Clear